Weather in Kangerlussuaq

Greenland     67°00′40″N   50°42′48″W
temp.,
°C
wind,
m/s
gust,
m/s
humid.,
%
clouds,
%
prec.,
mm/h
press.,
hPa
HPBL,
m
7 march, sun
sun700:00−14nnw119086 0.0 100921
03:00−15nnw229271 0.0 100820
06:00−15nw1192100 0.0 100620
09:00−14nnw1190100 0.0 100521
12:00−12nnw1188100 0.0 1004136
15:00−12n1192100 0.0 100340
18:00−16nne129588 0.0 100320
21:00−16nne119693 0.1 100220
8 march, mon
mon800:00−17ne1196100 0.1 100020
03:00−17ene0096100 0.1 99820
06:00−15ene1297100 0.8 99945
09:00−15ene2293100 1.1 99986
12:00−15e118833 0.0 99974
15:00−15e118817 0.0 99920
18:00−19e12910 0.0 100020
21:00−20ese11920 0.0 100120
9 march, tue
tue900:00−20ese11910 0.0 100020
03:00−21ne00910 0.0 100120
06:00−20ese018850 0.0 100220
09:00−19w008358 0.0 100320
12:00−15nnw008025 0.0 100133
15:00−15w118412 0.0 100120
18:00−19ese008558 0.0 100120
21:00−18e118279 0.0 100020
10 march, wed
wed1000:00−19e118484 0.0 99920
03:00−19ese117888 0.0 99820
06:00−18e227598 0.0 99720
09:00−15e127999 0.0 99720
12:00−13nw117593 0.0 99546
15:00−12wnw018396 0.0 99532
18:00−14nne0077100 0.0 99620
21:00−15w1177100 0.0 99620
11 march, thu
thu1100:00−16sw1281100 0.0 99620
03:00−17ssw1192100 0.0 99720
06:00−18sse119795 0.1 99820
09:00−17se119591 0.1 99920
12:00−15e009195 0.1 999102
15:00−15nw009596 0.1 99921
18:00−19sw0010092 0.0 100020
21:00−20se1110094 0.1 100120